CW7218 Weather Reports


time (UTC)temp
F
wind
direction
speed
knots
gust
knots
rain 1hr
in
rain 24hr
in
rain mn
in
humidity
%
barometer
mb
20260904141029 94 113 5.2 13.0 0.00 0.00 0.00 27 1021.8
20260904140029 94 135 5.2 11.3 0.00 0.00 0.00 27 1021.9
20260904135029 95 135 3.5 7.0 0.00 0.00 0.00 26 1022.0
20260904134029 95 158 4.3 8.7 0.00 0.00 0.00 26 1022.2
20260904133029 94 135 5.2 10.4 0.00 0.00 0.00 27 1022.0
20260904132029 95 135 5.2 13.0 0.00 0.00 0.00 26 1022.2
20260904131029 95 158 3.5 7.0 0.00 0.00 0.00 27 1022.3
20260904130029 94 248 2.6 7.0 0.00 0.00 0.00 30 1022.1
20260904125029 93 135 2.6 7.8 0.00 0.00 0.00 31 1022.3
20260904124109 92 68 3.5 9.6 0.00 0.00 0.00 35 1022.4
20260904123049 92 113 2.6 7.0 0.00 0.00 0.00 37 1022.6
20260904122028 92 135 2.6 7.8 0.00 0.00 0.00 38 1022.8
20260904121049 91 158 2.6 7.8 0.00 0.00 0.00 40 1022.8
20260904120028 90 113 3.5 7.8 0.00 0.00 0.00 41 1022.8
20260904115029 90 158 1.7 4.3 0.00 0.00 0.00 41 1022.8
20260904114029 90 158 1.7 4.3 0.00 0.00 0.00 43 1023.1
20260904113029 89 180 1.7 4.3 0.00 0.00 0.00 45 1023.0
20260904112029 88 135 1.7 6.1 0.00 0.00 0.00 46 1023.2
20260904111029 88 158 2.6 6.1 0.00 0.00 0.00 47 1023.0
20260904110049 87 135 3.5 7.8 0.00 0.00 0.00 48 1023.1
20260904105029 86 158 1.7 5.2 0.00 0.00 0.00 50 1023.2
20260904104029 85 180 2.6 5.2 0.00 0.00 0.00 51 1023.3
20260904103029 85 180 2.6 5.2 0.00 0.00 0.00 52 1023.4
20260904102029 85 180 1.7 4.3 0.00 0.00 0.00 51 1023.5
20260904101029 84 135 1.7 7.0 0.00 0.00 0.00 52 1023.6
20260904100049 84 135 1.7 4.3 0.00 0.00 0.00 52 1023.7
20260904095029 84 90 1.7 4.3 0.00 0.00 0.00 53 1023.7
20260904094029 83 158 1.7 5.2 0.00 0.00 0.00 55 1023.6
20260904093049 82 180 2.6 5.2 0.00 0.00 0.00 56 1023.6
20260904092029 82 180 1.7 4.3 0.00 0.00 0.00 57 1023.6
20260904091029 82 90 1.7 4.3 0.00 0.00 0.00 57 1023.8
20260904090049 82 158 1.7 4.3 0.00 0.00 0.00 57 1023.8
20260904085028 81 180 1.7 3.5 0.00 0.00 0.00 58 1023.7
20260904084029 81 203 0.9 2.6 0.00 0.00 0.00 57 1023.7
20260904083029 80 90 1.7 5.2 0.00 0.00 0.00 57 1023.6
20260904082028 79 90 0.9 2.6 0.00 0.00 0.00 57 1023.4
20260904081029 78 90 1.7 3.5 0.00 0.00 0.00 58 1023.4
20260904080109 76 90 2.6 5.2 0.00 0.00 0.00 61 1023.2
20260904075029 75 68 2.6 6.1 0.00 0.00 0.00 63 1023.2
20260904074029 74 45 4.3 6.1 0.00 0.00 0.00 64 1023.2
20260904073029 74 45 3.5 7.0 0.00 0.00 0.00 65 1023.1
20260904072048 73 45 3.5 7.0 0.00 0.00 0.00 67 1023.2
20260904071028 72 45 3.5 7.0 0.00 0.00 0.00 67 1023.1
20260904070029 71 45 4.3 7.0 0.00 0.00 0.00 69 1023.1
20260904065029 70 45 5.2 7.0 0.00 0.00 0.00 70 1023.0
20260904064028 70 45 5.2 7.0 0.00 0.00 0.00 71 1023.0
20260904063028 69 45 4.3 6.1 0.00 0.00 0.00 71 1023.0
20260904062028 69 23 5.2 8.7 0.00 0.00 0.00 71 1023.0
20260904061028 69 45 4.3 6.1 0.00 0.00 0.00 72 1023.2
20260904060028 69 45 6.1 7.8 0.00 0.00 0.00 72 1023.2
20260904055028 69 45 6.1 8.7 0.00 0.00 0.00 72 1022.9
20260904054028 69 45 4.3 7.8 0.00 0.00 0.00 72 1023.1
20260904053048 68 45 4.3 7.0 0.00 0.00 0.00 72 1023.0
20260904052028 69 45 5.2 7.8 0.00 0.00 0.00 71 1023.0
20260904051028 69 45 3.5 5.2 0.00 0.00 0.00 71 1023.3
20260904050030 69 23 3.5 6.1 0.00 0.00 0.00 71 1023.4
20260904045030 69 23 5.2 7.8 0.00 0.00 0.00 72 1023.4
20260904044050 69 45 6.1 7.8 0.00 0.00 0.00 72 1023.6
20260904043030 69 45 6.1 9.6 0.00 0.00 0.00 73 1023.6
20260904042050 69 45 7.0 9.6 0.00 0.00 0.00 74 1023.5
20260904041030 68 68 7.0 8.7 0.00 0.00 0.00 75 1023.7
20260904040030 68 45 5.2 7.8 0.00 0.00 0.00 75 1023.7
20260904035030 68 45 6.1 8.7 0.00 0.00 0.00 76 1023.9
20260904034030 68 45 7.0 8.7 0.00 0.00 0.00 76 1024.0
20260904033030 69 45 6.1 8.7 0.00 0.00 0.00 75 1024.0
20260904032030 69 45 6.1 9.6 0.00 0.00 0.00 75 1024.3
20260904031030 70 45 7.0 9.6 0.00 0.00 0.00 73 1024.2
20260904030050 69 45 5.2 7.0 0.00 0.00 0.00 73 1024.2
20260904025110 70 45 5.2 7.8 0.00 0.00 0.00 74 1024.4
20260904024110 69 45 6.1 7.8 0.00 0.00 0.00 75 1024.4
20260904023029 69 45 6.1 7.8 0.00 0.00 0.00 74 1024.4
20260904022050 69 45 6.1 7.8 0.00 0.00 0.00 74 1024.4
20260904021030 70 45 4.3 7.0 0.00 0.00 0.00 73 1024.5
20260904020030 70 23 3.5 7.0 0.00 0.00 0.00 72 1024.5
20260904015030 70 45 3.5 5.2 0.00 0.00 0.00 73 1024.7
20260904014029 70 45 3.5 6.1 0.00 0.00 0.00 73 1024.6
20260904013029 71 68 3.5 5.2 0.00 0.00 0.00 73 1024.6
20260904012029 71 45 3.5 7.0 0.00 0.00 0.00 73 1024.9
20260904011030 71 23 3.5 6.1 0.00 0.00 0.00 72 1024.7
20260904010050 72 0.0 1.7 0.00 0.00 0.00 72 1024.8
20260904005031 71 23 0.9 4.3 0.00 0.00 0.00 74 1024.9
20260904004029 71 45 2.6 5.2 0.00 0.00 0.00 73 1025.1
20260904003029 72 45 3.5 6.1 0.00 0.00 0.00 72 1025.2
20260904002029 73 0.0 1.7 0.00 0.00 0.00 71 1025.4
20260904001030 73 0.0 0.0 0.00 0.00 0.00 72 1025.2
20260904000050 73 0.0 0.0 0.00 0.00 0.00 71 1025.2
20260903235029 73 158 0.9 3.5 0.00 0.00 0.00 72 1025.3
20260903234029 73 23 3.5 5.2 0.00 0.00 0.00 72 1025.1
20260903233029 73 45 2.6 4.3 0.00 0.00 0.00 70 1025.1
20260903232029 73 45 3.5 6.1 0.00 0.00 0.00 70 1025.0
20260903231029 74 68 0.9 2.6 0.00 0.00 0.00 70 1025.2
20260903230029 74 45 1.7 3.5 0.00 0.00 0.00 70 1025.2
20260903225029 74 23 1.7 2.6 0.00 0.00 0.00 70 1025.1
20260903224049 74 293 0.9 3.5 0.00 0.00 0.00 70 1025.1
20260903223029 75 90 0.9 2.6 0.00 0.00 0.00 71 1025.1
20260903222029 75 0.0 1.7 0.00 0.00 0.00 70 1025.1
20260903221029 75 45 1.7 4.3 0.00 0.00 0.00 70 1025.2
20260903220049 75 68 2.6 5.2 0.00 0.00 0.00 70 1025.1
20260903215029 76 338 2.6 4.3 0.00 0.00 0.00 68 1025.1
20260903214029 76 338 4.3 6.1 0.00 0.00 0.00 69 1025.0
20260903213029 76 338 3.5 5.2 0.00 0.00 0.00 69 1025.1
20260903212029 76 0 2.6 6.1 0.00 0.00 0.00 68 1025.2
20260903211029 76 0 2.6 6.1 0.00 0.00 0.00 68 1025.2
20260903210049 77 0 0.9 2.6 0.00 0.00 0.00 68 1025.3
20260903205029 77 338 1.7 4.3 0.00 0.00 0.00 68 1025.3
20260903204029 78 203 0.9 2.6 0.00 0.00 0.00 69 1025.5
20260903203029 78 203 1.7 4.3 0.00 0.00 0.00 69 1025.4
20260903202109 78 248 2.6 3.5 0.00 0.00 0.00 68 1025.4
20260903201029 78 248 1.7 3.5 0.00 0.00 0.00 67 1025.3
20260903200029 79 270 2.6 4.3 0.00 0.00 0.00 65 1024.9
20260903195049 79 0.0 1.7 0.00 0.00 0.00 64 1024.9
20260903194029 79 338 0.9 1.7 0.00 0.00 0.00 64 1024.7
20260903193029 80 338 1.7 3.5 0.00 0.00 0.00 63 1024.4
20260903192029 80 45 0.9 1.7 0.00 0.00 0.00 62 1024.2
20260903191029 81 180 0.9 2.6 0.00 0.00 0.00 62 1024.0
20260903190029 81 315 0.9 3.5 0.00 0.00 0.00 61 1023.8
20260903185029 81 315 2.6 4.3 0.00 0.00 0.00 60 1023.8
20260903184029 82 248 1.7 3.5 0.00 0.00 0.00 60 1023.7
20260903183028 82 248 1.7 3.5 0.00 0.00 0.00 59 1023.7
20260903182028 82 248 2.6 6.1 0.00 0.00 0.00 58 1023.5
20260903181049 83 203 3.5 7.0 0.00 0.00 0.00 58 1023.5
20260903180029 83 180 4.3 8.7 0.00 0.00 0.00 57 1023.3
20260903175049 84 180 4.3 10.4 0.00 0.00 0.00 55 1023.3
20260903174029 85 180 3.5 7.0 0.00 0.00 0.00 52 1023.2
20260903173029 86 180 3.5 7.8 0.00 0.00 0.00 49 1023.2
20260903172028 86 158 2.6 6.1 0.00 0.00 0.00 48 1023.2
20260903171028 86 135 4.3 9.6 0.00 0.00 0.00 47 1023.2
20260903170028 87 135 4.3 9.6 0.00 0.00 0.00 46 1023.3
20260903165028 88 158 3.5 9.6 0.00 0.00 0.00 45 1023.3
20260903164048 88 135 4.3 12.2 0.00 0.00 0.00 44 1023.3
20260903163028 88 158 4.3 10.4 0.00 0.00 0.00 44 1023.1
20260903162028 88 158 6.1 11.3 0.00 0.00 0.00 43 1023.2
20260903161028 89 135 6.1 11.3 0.00 0.00 0.00 42 1023.2
20260903160028 89 0 6.1 13.0 0.00 0.00 0.00 42 1023.2
20260903155028 89 135 6.1 12.2 0.00 0.00 0.00 41 1023.2
20260903154028 90 135 7.0 13.9 0.00 0.00 0.00 40 1023.0
20260903153028 91 158 6.1 12.2 0.00 0.00 0.00 39 1023.2
20260903152028 91 180 6.1 12.2 0.00 0.00 0.00 37 1023.2
20260903151028 91 180 7.0 12.2 0.00 0.00 0.00 37 1023.2
20260903150028 92 180 5.2 12.2 0.00 0.00 0.00 36 1023.4
20260903145028 91 180 6.1 13.0 0.00 0.00 0.00 35 1023.3
20260903144028 91 180 4.3 9.6 0.00 0.00 0.00 35 1023.2
20260903143027 92 180 4.3 11.3 0.00 0.00 0.00 35 1023.4
20260903142027 92 135 4.3 10.4 0.00 0.00 0.00 35 1023.4